« Back
NWS Peachtree City, Ga » Text Product » GA Regional Weather Roundup


Printer-friendly Version
Current Version              Previous Versions:   1  2  3  4  5  6  7  8  9  

Regional Weather Roundup

042
ASUS42 KFFC 252003
RWRGA
WEATHER ROUNDUP FOR GEORGIA
NATIONAL WEATHER SERVICE PEACHTREE CITY GA
400 PM EDT SAT APR 25 2015

NOTE: "FAIR" INDICATES FEW OR NO CLOUDS BELOW 12,000 FEET WITH NO
SIGNIFICANT WEATHER AND/OR OBSTRUCTIONS TO VISIBILITY.

* = USE WITH CAUTION. THE STATIONS MARKED WITH AN ASTERISK MAY NOT
REPORT WEATHER SUCH AS PRECIPITATION, FOG, OR THUNDER AND ARE NOT
QUALITY CONTROLLED BY NWS.

THE REMARK "TC" DENOTES TEMPERATURE READING IN DEGREES CELSIUS.

GAZ001>058-252100-
NORTH GEORGIA

CITY           SKY/WX    TMP DP  RH WIND       PRES   REMARKS
ATLANTA        CLOUDY    77  65  66 W10G20    29.72F
ATHENS         CLOUDY    72  63  73 SW3       29.72F
CHAMBLEE       CLOUDY    76  66  71 SW12G20   29.71F
PEACHTREE CITY PTSUNNY   79  66  64 W10G18    29.72F
ROME           CLOUDY    74  65  73 W8G17     29.68F
WEST ATLANTA   CLOUDY    76  64  66 SW10      29.72F
GAINESVILLE    PTSUNNY   71  62  73 W8        29.73F
CARTERSVILLE   PTSUNNY   77  64  64 VRB3      29.69F


CITY           SKY/WX    TMP DP  RH WIND       PRES   REMARKS
DALTON*        CLOUDY    73  64  73 S5        29.69F
LAWRENCEVILLE* MOSUNNY   73  61  64 SW8       29.72F
BLAIRSVILLE*     N/A     73  35  24 W6        29.71F
$$

GAZ059>098-102>109-252100-
CENTRAL GEORGIA

CITY           SKY/WX    TMP DP  RH WIND       PRES   REMARKS
AUGUSTA-BUSH   CLOUDY    76  67  73 SW9       29.71S
AUGUSTA-DANIEL CLOUDY    76  66  71 SW7       29.72S
COLUMBUS       CLOUDY    83  66  56 W10       29.70F
MACON          CLOUDY    79  70  74 S3        29.71F
ROBINS AFB     CLOUDY    82  70  67 SW5       29.70F


CITY           SKY/WX    TMP DP  RH WIND       PRES   REMARKS
LAGRANGE*      CLOUDY    83  72  69 W9        29.71F
SYLVANIA*      PTSUNNY   77  70  78 SW8       29.74S
MILLEDGEVILLE* CLOUDY    79  72  78 CALM      29.71F
$$

GAZ099>101-110>166-252100-
SOUTH GEORGIA

CITY           SKY/WX    TMP DP  RH WIND       PRES   REMARKS
SAVANNAH       CLOUDY    76  68  76 SW10      29.74F
VALDOSTA       TSTM      77  74  90 SW6       29.77F FOG
ALMA           PTSUNNY   85  69  58 SW12G23   29.73F
ST SIMONS      MOSUNNY   81  69  67 SW13      29.75F
FT STEWART     CLOUDY    79  70  73 SW8       29.71F
ALBANY         CLOUDY    84  72  67 SW14G23   29.75F
HUNTER AFB     CLOUDY    77  71  82 SW10      29.71F
MOODY AFB      PTSUNNY   81  71  71 SW10      29.74F
BRUNSWICK      MOSUNNY   82  66  57 SW23G31   29.76F


CITY           SKY/WX    TMP DP  RH WIND       PRES   REMARKS
BAINBRIDGE*    PTSUNNY   86  77  74 SW15      29.75F HX  97
MOULTRIE*      PTSUNNY   81  75  83 SW10      29.77F
VIDALIA*       PTSUNNY   81  72  74 SW5       29.73F
WAYCROSS*      PTSUNNY   86  73  65 W18       29.74F HX  94
DOUGLAS*       CLOUDY    86  68  54 W17G23    29.75F
$$



USA.gov is the U.S. government's official web portal to all federal, state and local government web resources and services.